This is the latest recevied weather packets stored in our database for station/object N4PWG. If no packets are shown the sender has not sent any weather packets the latest 10 day(s).
| Time | Temp. | Humidity | Pressure | Rain* | Wind** | Luminosity | Snow |
|---|---|---|---|---|---|---|---|
| 1777920930 | 28.33° C | 42% | 1027 hPa | 0 mm | - | 718 W/m² | - |
| 1777920626 | 27.78° C | 43% | 1026.9 hPa | 0 mm | - | 714 W/m² | - |
| 1777920321 | 27.78° C | 43% | 1027.2 hPa | 0 mm | - | 723 W/m² | - |
| 1777920017 | 27.78° C | 43% | 1027.3 hPa | 0 mm | - | 724 W/m² | - |
| 1777919715 | 27.78° C | 42% | 1027.3 hPa | 0 mm | - | 692 W/m² | - |
| 1777919413 | 27.78° C | 43% | 1027.2 hPa | 0 mm | - | 695 W/m² | - |
| 1777919109 | 27.78° C | 43% | 1027.5 hPa | 0 mm | - | 721 W/m² | - |
| 1777918807 | 27.78° C | 43% | 1027.5 hPa | 0 mm | - | 727 W/m² | - |
| 1777918504 | 27.78° C | 44% | 1027.6 hPa | 0 mm | - | 724 W/m² | - |
| 1777918202 | 27.22° C | 43% | 1027.5 hPa | 0 mm | - | 723 W/m² | - |
| 1777917901 | 27.22° C | 43% | 1027.6 hPa | 0 mm | - | 735 W/m² | - |
| 1777917599 | 27.22° C | 45% | 1027.8 hPa | 0 mm | - | 711 W/m² | - |
| 1777917295 | 27.22° C | 44% | 1027.7 hPa | 0 mm | - | 710 W/m² | - |
| 1777916993 | 27.22° C | 45% | 1027.9 hPa | 0 mm | - | 734 W/m² | - |
| 1777916690 | 27.22° C | 43% | 1027.9 hPa | 0 mm | - | 724 W/m² | - |
| 1777916387 | 27.78° C | 44% | 1027.8 hPa | 0 mm | - | 706 W/m² | - |
| 1777916078 | 27.22° C | 45% | 1027.8 hPa | 0 mm | - | 727 W/m² | - |
| 1777915776 | 27.22° C | 45% | 1028.1 hPa | 0 mm | - | 730 W/m² | - |
| 1777915472 | 27.22° C | 43% | 1028.1 hPa | 0 mm | - | 742 W/m² | - |
| 1777915169 | 27.22° C | 46% | 1028 hPa | 0 mm | - | 763 W/m² | - |
| 1777914866 | 27.22° C | 46% | 1028 hPa | 0 mm | - | 734 W/m² | - |
| 1777914563 | 26.67° C | 47% | 1028.2 hPa | 0 mm | - | 730 W/m² | - |
| 1777914259 | 27.22° C | 45% | 1028.3 hPa | 0 mm | - | 716 W/m² | - |
| 1777913956 | 27.22° C | 46% | 1028.2 hPa | 0 mm | - | 683 W/m² | - |
| 1777913652 | 26.67° C | 46% | 1028.5 hPa | 0 mm | - | 672 W/m² | - |
* Rain latest hour (hover to see other rain measurements)
** Current wind speed in m/s (hover to see current wind gust speed)